Regional Weather Roundup
Issued by NWS Charleston, SC

Current Version | Previous Version | Text Only | Print | Product List | Glossary On
Versions: 1 2 3 4 5 6 7 8 9 10 11 12 13 14 15 16 17 18 19 20 21 22 23 24 25 26 27 28 29 30 31 32 33 34 35 36 37 38 39 40 41 42 43 44 45 46 47 48 49 50
000 ASUS42 KCHS 272012 RWRCHS REGIONAL WEATHER ROUNDUP NATIONAL WEATHER SERVICE CHARLESTON SC 400 PM EDT MON JUL 27 2015 NOTE: "FAIR" INDICATES FEW OR NO CLOUDS BELOW 12,000 FEET WITH NO SIGNIFICANT WEATHER AND/OR OBSTRUCTIONS TO VISIBILITY. NOT ALL STATIONS ARE QUALITY CONTROLLED BY THE NATIONAL WEATHER SERVICE. USE DATA WITH CAUTION...ESPECIALLY DEWPOINT OBSERVATIONS. SCZ027-030-031-034>040-042>050-272100- ...SOUTHEAST SOUTH CAROLINA... CITY SKY/WX TMP DP RH WIND PRES REMARKS N CHARLESTON PTSUNNY 89 76 65 SE10 29.93F HX 100 WATERFRONT PRK N/A 86 78 77 E10 29.92F HX 98 MOUNT PLEASANT LGT RAIN 90 79 70 E8G16 29.94F HX 105 JOHNS ISLAND FAIR 88 77 70 E12 29.94F HX 100 PINOPOLIS NOT AVBL MONCKS CORNER FAIR 95 70 43 NW6 29.93F HX 101 SUMMERVILLE FAIR 93 72 49 CALM 29.94F HX 100 BEAUFORT MCAS MOSUNNY 90 78 68 E8 29.93F HX 104 BEAUFORT ARPT FAIR 90 77 66 E9 29.93S HX 102 HILTON HEAD IS MOSUNNY 88 81 79 NE10 29.95F HX 105 WALTERBORO PTCLDY 95 66 38 NE7 29.93F HX 98 ALLENDALE FAIR 93 66 40 VRB5G12 29.92F HX 96 ...SOUTHERN MIDLANDS AND PEE DEE... CITY SKY/WX TMP DP RH WIND PRES REMARKS GEORGETOWN NOT AVBL KINGSTREE NOT AVBL ORANGEBURG SUNNY 93 67 42 E8 29.93F HX 96 BARNWELL FAIR 97 63 32 E10G17 29.94F HX 98 AIKEN FAIR 91 61 35 CALM 29.98F HX 91 MANNING FAIR 93 63 36 SE5 29.92F HX 94 COLUMBIA MOSUNNY 98 63 31 E9 29.93F HX 100 SUMTER MOSUNNY 95 68 41 NE6 29.92F HX 99 FLORENCE MOSUNNY 94 71 47 CALM 29.93F HX 101 MYRTLE BEACH MOSUNNY 88 75 66 E17 29.98F HX 97 N MYRTLE BEACH SUNNY 84 72 67 E13G18 29.97F $$ GAZ063-065-086>088-099>101-113>116-118-119-134>141-150-272100- ...SOUTHEAST GEORGIA... CITY SKY/WX TMP DP RH WIND PRES REMARKS SAVANNAH ARPT PTSUNNY 89 76 65 E9 29.93F HX 100 HUNTER AAF MOSUNNY 88 80 77 E6 29.91F HX 104 FORT STEWART DRIZZLE 90 77 66 E13 29.90F HX 102 STATESBORO MOSUNNY 95 69 43 E10 29.93S HX 101 SYLVANIA CLEAR 95 69 42 E6 29.94F HX 100 CLAXTON FAIR 93 68 43 N5 29.92F HX 97 ...CSRA...CENTRAL AND FAR SOUTHEAST GEORGIA... CITY SKY/WX TMP DP RH WIND PRES REMARKS THOMSON MOSUNNY 97 66 36 NE6 29.98F HX 101 AUGUSTA-BUSH MOSUNNY 98 63 31 E10G16 29.91F HX 100 AUGUSTA-DANIEL MOSUNNY 98 64 32 NE5 29.94F HX 100 SWAINSBORO FAIR 97 66 36 NE3 29.94F HX 100 VIDALIA MOSUNNY 95 63 34 NE12G17 29.93F HX 96 EASTMAN FAIR 96 65 36 NE7 29.95F HX 99 HAZLEHURST FAIR 96 62 32 NE5 29.91F HX 96 ALMA MOSUNNY 87 75 67 SE13G22 29.93S HX 96 WAYCROSS LGT RAIN 80 79 97 NE7 29.95F JESUP MOCLDY 88 79 74 S3 29.93F HX 102 BAXLEY FAIR 95 64 36 E7 29.92F HX 97 BRUNSWICK CLOUDY 86 77 74 NE12 29.93F HX 97 SAINT SIMONS PTSUNNY 85 76 74 NE9 29.92F HX 94 $$ SCZ027-028-034-036>038-045-046-048>050-GAZ119-141-272100- ...LAKE AND SUPPLEMENTAL COASTAL OBSERVATIONS... STATION/POSITION TIME TEMP WIND PRES WAVE SWELL AIR SEA DIR/SP/G HT/PER HT/PER/DIR (UTC) (F) (DEG/KT/KT) (MB) (FT/S) (FT/S/D) UPR LAKE MARION NOT AVBL WINYAH BAY NOT AVBL LAKE MURRAY 1900 91 200/ 5/ 7 1013.5F ACE BASIN NERRS NOT AVBL FORT PULASKI 1900 83 86 70/ 12/ 14 1014.5F SAPELO ISLAND 1900 85 70/ 8 1014.0S $$ ANZ835-935-AMZ111-154-330-350-352-354-370-450-454-472-272100- ...C-MAN AND BUOY OBSERVATIONS... STATION/POSITION TIME TEMP WIND PRES WAVE SWELL AIR SEA DIR/SP/G HT/PER HT/PER/DIR (UTC) (F) (DEG/KT/KT) (MB) (FT/S) (FT/S/D) BUOY 41004 1950 84 85 60/ 8/ 10 1013.6S 2/ 6 2/ 6 BUOY 41008 1950 82 82 70/ 10/ 12 1013.5F 2/ 6 2/ 90/ 6 FOLLY BEACH CMAN 1900 86 80/ 9/ 11 1014.5F CAPERS NEARSHORE 1908 82 70/ 10/ 14 1014.4F FRIPP NEARSHORE 1900 84 90/ 12/ 12 1013.7F STATION/POSITION TIME TEMP WIND PRES WAVE SWELL AIR SEA DIR/SP/G HT/PER HT/PER/DIR (UTC) (F) (DEG/KT/KT) (MB) (FT/S) (FT/S/D) 5E ST. MARYS GA 1921 82 N/A 2/ 5 FRYING PAN BUOY 1950 83 84 110/ 14/ 16 1014.9F 4/ 6 2/110/11 BUOY 41025 NOT AVBL CAPE LOOKOUT NC 1900 82 100/ 9/ 10 1015.8F BUOY 41002 1950 76 82 250/ 17/ 21 1016.1F 5/ 6 2/340/11 BUOY 41010 1920 84 84 200/ 17/ 19 1015.1F ST AUGUSTINE FL 2000 81 83 130/ 10/ 10 1014.1R $$

USA.gov is the U.S. government's official web portal to all federal, state and local government web resources and services.